TimeEDT,TemperatureF,Dew PointF,Humidity,Sea Level PressureIn,VisibilityMPH,Wind Direction,Wind SpeedMPH,Gust SpeedMPH,PrecipitationIn,Events,Conditions,WindDirDegrees,DateUTC
12:54 AM,43.0,39.0,86,30.12,10.0,Calm,Calm,-,N/A,,Scattered Clouds,0,2013-04-03 04:54:00
1:54 AM,44.1,39.9,85,30.14,10.0,Calm,Calm,-,N/A,,Scattered Clouds,0,2013-04-03 05:54:00
2:54 AM,48.0,42.1,80,30.15,10.0,North,3.5,-,N/A,,Overcast,350,2013-04-03 06:54:00
3:54 AM,50.0,44.1,80,30.14,10.0,North,4.6,-,N/A,,Overcast,360,2013-04-03 07:54:00
4:54 AM,48.9,43.0,80,30.14,10.0,NNE,5.8,-,N/A,,Overcast,20,2013-04-03 08:54:00
5:54 AM,50.0,42.1,74,30.17,10.0,North,4.6,-,N/A,,Overcast,360,2013-04-03 09:54:00
6:54 AM,48.9,35.1,59,30.17,10.0,NNE,13.8,-,N/A,,Overcast,30,2013-04-03 10:54:00
7:54 AM,46.9,30.9,54,30.21,10.0,NNE,11.5,-,N/A,,Overcast,20,2013-04-03 11:54:00
9:54 AM,48.0,36.0,63,30.25,10.0,NNE,13.8,-,N/A,,Overcast,30,2013-04-03 13:54:00
10:54 AM,48.9,32.0,52,30.25,10.0,NE,17.3,-,N/A,,Overcast,40,2013-04-03 14:54:00
12:54 PM,51.1,28.0,41,30.26,10.0,ENE,11.5,-,N/A,,Overcast,60,2013-04-03 16:54:00
1:54 PM,53.1,30.9,43,30.24,10.0,East,8.1,-,N/A,,Overcast,80,2013-04-03 17:54:00
2:54 PM,54.0,30.0,40,30.23,10.0,East,8.1,18.4,N/A,,Mostly Cloudy,80,2013-04-03 18:54:00
3:54 PM,55.0,30.0,38,30.22,10.0,ENE,5.8,-,N/A,,Scattered Clouds,70,2013-04-03 19:54:00
4:54 PM,55.9,30.0,37,30.21,10.0,North,5.8,-,N/A,,Mostly Cloudy,10,2013-04-03 20:54:00
5:54 PM,55.0,30.0,38,30.23,10.0,NE,4.6,-,N/A,,Mostly Cloudy,50,2013-04-03 21:54:00
6:54 PM,52.0,33.1,49,30.23,10.0,ENE,6.9,-,N/A,,Mostly Cloudy,70,2013-04-03 22:54:00
7:54 PM,48.0,35.1,61,30.24,10.0,ESE,4.6,-,N/A,,Mostly Cloudy,120,2013-04-03 23:54:00
8:54 PM,46.9,32.0,56,30.27,10.0,ESE,4.6,-,N/A,,Mostly Cloudy,110,2013-04-04 00:54:00
9:54 PM,45.0,32.0,60,30.29,10.0,ESE,3.5,-,N/A,,Mostly Cloudy,120,2013-04-04 01:54:00
10:54 PM,45.0,33.1,63,30.30,10.0,East,3.5,-,N/A,,Mostly Cloudy,80,2013-04-04 02:54:00
11:54 PM,46.0,35.1,66,30.31,10.0,East,3.5,-,N/A,,Mostly Cloudy,90,2013-04-04 03:54:00